sat.trackr.live / text

‹ back to catalog

STARLINK-5090

NORAD 56137 · 2023-046AX

PAYLOAD ACTIVE UNKNOWN

§ Identity

Operator
Country
US
Launch date
2023-03-29
Launch site
AFETR
Launch vehicle
Mass (kg)
RCS (m²)

Purposes: comms

External: N2YO · Heavens-Above · Gunter

§ Orbital elements

Epoch: 2026-05-25T01:52:17.556672Z

Period
94.27 min
Inclination
43.0055°
Eccentricity
0.0001408
Mean motion
15.27572959 rev/d
Perigee alt
482.1 km
Apogee alt
484.0 km
Semi-major
6,861.2 km
B*
4.5954e-5
RAAN
75.5025°
Arg perigee
258.6529°
Mean anomaly
101.4164°
Rev number
17,388

§ Raw data

STARLINK-50901 56137U 23046AX  26145.07798098  .00001002  00000+0  45954-4 0  99962 56137  43.0055  75.5025 0001408 258.6529 101.4164 15.27572959173881

JSON: /api/v1/satellites/56137 · /tle

For live sub-satellite position, see the globe view (requires WebGL).

§ Visibility from observer

Set your observer location to see the next 7 days of passes ≥ 10°. The values pass through the URL so the page stays shareable.

No JS? Fill the form by hand. The geolocation button needs JavaScript.